Dewa Poker | DominoQQ | Capsa Susun | Ceme Keliling

Jackpot

Texas Poker Multi Jackpot System

Kini Telah hadir Jackpot SUPER ROYAL FLUSH

Kini Telah hadir Jackpot 2000 (khusus table VIP keatas).

Ikutilah global jackpot yang tersedia di system kami, dengan system jackpot terbaru dan pertama di indonesia, anda dapat membeli jackpot dengan harga 100 rupiah saja dan menangkan hadiahnya hingga puluhan juta rupiah.

Jackpot bukanlah suatu keharusan untuk dibeli, namun kami memberikan suatu fitur tambahan untuk member tercinta dari www.dwkartu.net.

Terdapat tiga pilihan harga jackpot yang bisa anda beli yaitu :100,500,1000 dan 2000(khusus table VIP Keatas) rupiah.

Hadiah dari Multi jackpot system www.dwkartu.net

  1. full house x 10 harga jackpot yang anda beli.
      (contoh:anda membeli 1000 maka:1000 X10 = 10.000)
  2. four of kind x 250 harga jackpot yang anda beli
      (contoh:anda membeli 1000 maka:1000 X250 = 250.000)
  3. Straight flush x 1200
      (contoh:anda membeli 1000 maka:1000 X1200 = 1.200.000)
  4. Royal flush x 10000 harga jackpot yang anda beli
      (contoh:anda membeli 1000 maka:1000 X10000 = 10.000.000)
  5. SUPER ROYAL FLUSH x 30000 harga jackpot yang anda beli
      (contoh:anda membeli 1000 maka:1000 X30000 = 30.000.000)

Kondisi kartu

  1. full house adalah kondisi kartu dimana kartu anda dan kartu tengah dengan total 7 kartu bisa mendapatkan nilai 5 kartu dengan kombinasi 1 tris(three of kind) dan 1 pair, contoh 3 kartu 10 dan 2 kartu 5
  2. Four of kind adalah kondisi kartu dimana kartu anda dan kartu tengah dengan total 7 kartu bisa mendapatkan nilai 5 kartu dengan kombinasi 4 kartu yang sama jumlah dan 1 kartu apapun juga contoh anda mendapatkan 4 buah kartu angka 3 dan 1 kartu apapun.
  3. Staright flush adalah kondisi kartu dimana kartu anda dan kartu tengah dengan total 7 kartu bisa mendapatkan nilai 5 kartu dengan kombinasi seri / staright dengan kembang yang sama contoh : urutan kartu dari angka 5, 6, 7, 8 , 9 10 dengan kembang yg sama misalnya as hati
  4. Royal flush adalah kondisi kartu dimana kartu anda dan kartu tengah dengan total 7 kartu bisa mendapatkan nilai 5 kartu dengan kombinasi seri / staright dengan kembang yang sama tetapi kartu tersebut haruslah dimulai dari 10. contoh 10, Queen, Jack, King dan aces dengan kembang yang sama
  5. Super Royal flush adalah kondisi kartu dimana Kedua kartu anda digabung dengan 3 kartu pertama meja haruslah royal flush. contoh kartu anda 10,Queen kembang sama dan 3 kartu pertama meja adalah Jack, King dan aces dengan kembang yang sama

Demikian adalah penjelasan dari Multi Jackpot www.dwkartu.net terima kasih dan selamat bermain salam hoki dari kami

Texas Poker Jackpot Winner

TOP SUPER ROYAL FLUSH
No.TanggalNamaPriceWin
115/12 16:03ROESLI19Super Royal flush6,000,000
215/12 14:37TXW8GPQ0R8Super Royal flush30,000,000
315/12 11:10MAKHSuper Royal flush15,000,000
414/12 20:48KABOJA999Super Royal flush3,000,000
514/12 14:49MELESETSuper Royal flush30,000,000
TOP ROYAL FLUSH
No.TanggalNamaPriceWin
115/12 20:49MANDAN08Royal flush2,000,000
215/12 20:45CEKLICHANRoyal flush1,000,000
315/12 20:43A53D68C0Royal flush5,000,000
415/12 20:43LIKE_JPRoyal flush2,000,000
515/12 20:24KUDIL991Royal flush1,000,000
TOP STRAIGHT FLUSH
No.TanggalNamaPriceWin
115/12 20:53BANGSAD5Straight Flush600,000
215/12 20:49D3BB1IStraight Flush600,000
315/12 20:46AD125D9FStraight Flush600,000
415/12 20:45T4DGIEL981Straight Flush1,200,000
515/12 20:42BOELOED88Straight Flush120,000
LATEST JACKPOT
No.TanggalNamaPriceWin
115/12 20:53TEMANLAWASFull House2,000
215/12 20:53SUNDAP02Full House5,000
315/12 20:53WITA160774Full House2,000
415/12 20:53WAGON66Full House5,000
515/12 20:53MANTAR88Full House5,000
615/12 20:53DGYAHDHFull House5,000
715/12 20:53BOS9073Full House5,000
815/12 20:53MIA0303Full House2,000
915/12 20:53CAPUT21Full House10,000
1015/12 20:53YUNIOR07Full House10,000
1115/12 20:53FUCK1010Full House5,000
1215/12 20:53P4Q5VN8D8JFull House10,000
1315/12 20:53KOCOPORFull House10,000
1415/12 20:53BANGSAD5Straight Flush600,000
1515/12 20:53MAJORCSFull House1,000
1615/12 20:53JUL4UH4P3Full House1,000
1715/12 20:53PONGKALENGFull House1,000
1815/12 20:53PAPAROYYFull House5,000
1915/12 20:53AKUIRFull House2,000
2015/12 20:53JOE0516Full House5,000
2115/12 20:53FANSBIGOFull House10,000
2215/12 20:53JIKKY09Full House2,000
2315/12 20:53MARIYATI12Full House2,000
2415/12 20:53DFA48245Full House2,000
2515/12 20:53JAE24Full House2,000
2615/12 20:53BADAI212Full House1,000
2715/12 20:53A126F035Full House5,000
2815/12 20:53PARDOS03Full House2,000
2915/12 20:53MEMECANFull House5,000
3015/12 20:53SANGE717Full House20,000
3115/12 20:53BUKT1K4NFull House1,000
3215/12 20:53S3Z0_11Full House2,000
3315/12 20:53DOLS123Full House5,000
3415/12 20:53FC5969DDFour Of A Kind50,000
3515/12 20:53BODATZZFull House5,000
3615/12 20:53C17ASFull House2,000
3715/12 20:53MEOWITUFour Of A Kind50,000
3815/12 20:53KITABISA99Full House10,000
3915/12 20:53R4TUU_JPFull House2,000
4015/12 20:53BENJOL1122Full House1,000
4115/12 20:53N9EKN9OKFull House10,000
4215/12 20:53KARBET50Full House2,000
4315/12 20:53GAMLER_88Full House1,000
4415/12 20:53KOMBET80Full House1,000
4515/12 20:53RIZKIAKBFour Of A Kind25,000
4615/12 20:53GU9H3AP24CFull House1,000
4715/12 20:53JPDONK00Full House5,000
4815/12 20:52BOBI000Full House10,000
4915/12 20:52UNTUNG1N18Full House20,000
5015/12 20:52DAHU06Full House2,000

Domino Multi Jackpot System

Ikutilah global jackpot yang tersedia di system kami, dengan system jackpot terbaru dan pertama di indonesia, anda dapat membeli jackpot dengan harga 100 rupiah saja dan menangkan hadiahnya hingga puluhan juta rupiah.

Jackpot bukanlah suatu keharusan untuk dibeli, namun kami memberikan suatu fitur tambahan untuk member tercinta dari www.dwkartu.net.

Terdapat tiga pilihan harga jackpot yang bisa anda beli yaitu :100,500 dan 1000 rupiah.

Hadiah dari Multi jackpot system www.dwkartu.net

  1. Murni Kecil x 50 harga jackpot yang anda beli.
      (contoh:anda membeli 1000 maka:1000 X 50 = 50.000)
  2. Murni Besar x 50 harga jackpot yang anda beli
      (contoh:anda membeli 1000 maka:1000 X 50 = 50.000)
  3. BALAK x 100 harga jackpot yang anda beli
      (contoh:anda membeli 1000 maka:1000 X 100 = 100.000)
  4. ENAM DEWA x 6666 harga jackpot yang anda beli
      (contoh:anda membeli 1000 maka:1000 X 6666 = 6.666.000)

Demikian adalah penjelasan dari Multi Jackpot www.dwkartu.net terima kasih dan selamat bermain salam hoki dari kami

Domino Jackpot Winner

TOP ENAM DEWA
No.TanggalNamaPriceWin
115/12 20:50DANZ2711murni enam666,600
215/12 20:43ABAHALFARmurni enam666,600
315/12 19:31HIHIHII22murni enam3,333,000
415/12 18:41MENTREK99murni enam3,333,000
515/12 17:57W4NB0Ymurni enam3,333,000
TOP BALAK
No.TanggalNamaPriceWin
115/12 20:46ROSSI_999balak100,000
215/12 20:43V19E10Pbalak100,000
315/12 20:42UWIEZ182balak100,000
415/12 20:42NGATANGbalak50,000
515/12 20:40TRIHUT99balak50,000
LATEST JACKPOT
No.TanggalNamaPriceWin
115/12 20:53TOLONG6666murni besar25,000
215/12 20:53E46270BAmurni kecil50,000
315/12 20:52UHNJImurni kecil25,000
415/12 20:52DADU37murni besar5,000
515/12 20:52OBAMA292murni besar25,000
615/12 20:51DIKKDIKKmurni kecil5,000
715/12 20:51KFMU42MIVYmurni kecil50,000
815/12 20:51NIAAYATmurni kecil50,000
915/12 20:50MBONDHOmurni kecil50,000
1015/12 20:50DANZ2711murni enam666,600
1115/12 20:50Y0GA99murni besar5,000
1215/12 20:50JX85murni kecil25,000
1315/12 20:50AEAEX133murni besar25,000
1415/12 20:50CIAMPANGmurni kecil50,000
1515/12 20:49TEMPURJPmurni kecil5,000
1615/12 20:49DONIDOANK8murni besar50,000
1715/12 20:48BOBOBO123murni besar25,000
1815/12 20:47FG4537murni kecil50,000
1915/12 20:47NGAMBEK21murni kecil25,000
2015/12 20:47ASKAR85murni besar50,000
2115/12 20:46ROSSI_999balak100,000
2215/12 20:45H912PLVFRRlucky99200,000
2315/12 20:45BOAMCUYmurni besar25,000
2415/12 20:44DADU37murni kecil5,000
2515/12 20:44EDOHASANmurni kecil25,000
2615/12 20:44GATSBY95lucky9910,000
2715/12 20:43V19E10Pbalak100,000
2815/12 20:43ABAHALFARmurni enam666,600
2915/12 20:43BALUTA55murni besar25,000
3015/12 20:43CAK456murni kecil25,000
3115/12 20:42UWIEZ182balak100,000
3215/12 20:42DADU37murni besar5,000
3315/12 20:42AQ02murni besar25,000
3415/12 20:42WKWKWKWKWKmurni besar50,000
3515/12 20:42NGATANGbalak50,000
3615/12 20:41FBYDJmurni kecil50,000
3715/12 20:41SADAMSmurni kecil50,000
3815/12 20:41TEMPURJPmurni kecil5,000
3915/12 20:40BENGHULmurni besar50,000
4015/12 20:40BDR1114murni kecil50,000
4115/12 20:40NGGOWBmurni kecil25,000
4215/12 20:40UKIABImurni besar50,000
4315/12 20:40NAMARAFCmurni besar5,000
4415/12 20:40TONER_BABImurni besar25,000
4515/12 20:40TRIHUT99balak50,000
4615/12 20:39SUBDIT1murni besar25,000
4715/12 20:39TEMPURJPmurni besar5,000
4815/12 20:39DAPAH66murni besar5,000
4915/12 20:39WANWILLYbalak100,000
5015/12 20:39BUDIGMmurni kecil25,000

Ceme Multi Jackpot System

Jackpot dilihat dari gabungan kartu pemain dengan kartu bandar. Bandar harus membeli jackpot sebanyak jumlah player yang sedang duduk. Sebagai contoh bila terdapat 3 pemain duduk bermain, dan bandar memutuskan untuk membeli jackpot Rp 1.000, maka pada periode tersebut bandar akan membeli jackpot sebanyak 3xRp1.000 = Rp3.000.

Jackpot bukanlah suatu keharusan untuk dibeli, namun kami memberikan suatu fitur tambahan untuk member tercinta dari www.dwkartu.net.

Terdapat tiga pilihan harga jackpot yang bisa anda beli yaitu :100,500 dan 1000 rupiah.

Hadiah dari Multi jackpot system www.dwkartu.net

  1. Murni Kecil x 50 harga jackpot yang anda beli.
      (contoh:anda membeli 1000 maka:1000 X 50 = 50.000)
  2. Murni Besar x 50 harga jackpot yang anda beli
      (contoh:anda membeli 1000 maka:1000 X 50 = 50.000)
  3. BALAK x 200 harga jackpot yang anda beli
      (contoh:anda membeli 1000 maka:1000 X 200 = 200.000)
  4. ENAM DEWA x 6666 harga jackpot yang anda beli
      (contoh:anda membeli 1000 maka:1000 X 6666 = 6.666.000)

Demikian adalah penjelasan dari Multi Jackpot www.dwkartu.net terima kasih dan selamat bermain salam hoki dari kami

Ceme Jackpot Winner

TOP ENAM DEWA
No.TanggalNamaPriceWin
115/12 20:41BAFIL90murni enam3,333,000
215/12 20:38BOJONK15murni enam6,666,000
315/12 20:37MFDLCJR8CWmurni enam3,333,000
415/12 19:27IC3111ANmurni enam666,600
515/12 19:23MINAH_AJAmurni enam3,333,000
TOP BALAK
No.TanggalNamaPriceWin
115/12 20:53MEMETY84balak200,000
215/12 20:53B0D0NGSbalak100,000
315/12 20:53BAROEN17balak200,000
415/12 20:53SKULE99balak100,000
515/12 20:53DOLLAR_18balak200,000
LATEST JACKPOT
No.TanggalNamaPriceWin
115/12 20:53MEMETY84balak200,000
215/12 20:53B0D0NGSbalak100,000
315/12 20:53BOBOOOY06murni besar50,000
415/12 20:53SAHRUN77murni besar25,000
515/12 20:53MOROLLAmurni kecil50,000
615/12 20:53MOROLLAmurni kecil50,000
715/12 20:53KICALmurni kecil5,000
815/12 20:53M45BOZmurni besar25,000
915/12 20:53BAROEN17balak200,000
1015/12 20:53SKULE99balak100,000
1115/12 20:53DOLLAR_18balak200,000
1215/12 20:53SULLUNG06murni kecil50,000
1315/12 20:53BOZZRYNmurni kecil50,000
1415/12 20:53JAGO_Emurni kecil25,000
1515/12 20:52SHIN007murni kecil50,000
1615/12 20:52ONDOS11murni kecil5,000
1715/12 20:52HA23XOGQZ9balak200,000
1815/12 20:52REYAN92balak200,000
1915/12 20:52LB885506murni besar50,000
2015/12 20:52LB885506murni besar50,000
2115/12 20:52AT75NEFLIPmurni kecil50,000
2215/12 20:52G6BPQYI6U4murni kecil25,000
2315/12 20:52SALSA2003murni besar50,000
2415/12 20:52KENZA009murni besar25,000
2515/12 20:52SALSA2003balak200,000
2615/12 20:52KINGKO777balak200,000
2715/12 20:52KOPILAWASbalak20,000
2815/12 20:52NELVAN55murni kecil25,000
2915/12 20:52BASKORRROmurni kecil50,000
3015/12 20:52DOLON30murni kecil50,000
3115/12 20:52KAHG990murni kecil50,000
3215/12 20:52ADZAN03murni kecil25,000
3315/12 20:52ADZAN03murni kecil25,000
3415/12 20:52B4598BGCmurni kecil50,000
3515/12 20:52SHIN007murni besar50,000
3615/12 20:52OILINmurni besar50,000
3715/12 20:52AT75NEFLIPmurni besar50,000
3815/12 20:52F7GQI6DJ04murni besar50,000
3915/12 20:52DAKEDO22murni kecil25,000
4015/12 20:52COBLOK77murni kecil50,000
4115/12 20:51SALSA2003murni kecil50,000
4215/12 20:51KINGKO777murni kecil50,000
4315/12 20:51PHABOO79murni kecil50,000
4415/12 20:51MANDRA133murni kecil25,000
4515/12 20:51KARDOL2009murni besar5,000
4615/12 20:51IDP0JWFINTmurni besar25,000
4715/12 20:51GASELA79murni besar5,000
4815/12 20:51BONI38murni kecil50,000
4915/12 20:51CODOTSAKTImurni kecil5,000
5015/12 20:51RASENDR1YAmurni kecil50,000